Wind_Speed
60 62 64 61 59 58 57 58 57 55 54 54 55 55 50 45 46 44 37 36 35 34 34 38 36 29 27 27 31 30 31 33 36 39 42 44 45 45 44 44 46 47 48 49
52 59 56 57 59 59 58 58 57 56 57 56 56 58 54 50 47 46 43 41 39 40 39 40 35 30 32 35 35 35 37 38 38 42 45 47 47 48 49 48 47 49 49 50
49 50 49 51 55 54 53 53 55 57 59 58 59 60 58 51 52 52 48 44 43 41 41 42 38 38 39 40 39 40 41 41 42 45 47 49 49 50 51 51 51 51 52 53
57 52 50 52 53 54 53 51 53 55 58 59 58 64 59 55 54 55 52 50 47 46 46 45 45 47 46 46 46 45 45 48 50 51 53 54 53 53 52 52 53 53 55 56
56 50 52 49 47 50 52 51 52 53 56 58 58 63 63 58 57 56 52 52 53 51 50 49 50 52 52 53 52 51 52 55 55 58 59 60 57 54 53 53 53 54 56 56
55 58 57 53 52 52 55 53 51 52 55 61 57 61 67 60 54 53 57 56 55 53 53 54 54 55 57 57 56 57 59 60 61 61 63 63 61 58 56 56 56 57 57 58
56 55 52 56 54 54 55 57 56 55 56 61 57 58 64 57 55 54 54 56 55 55 56 56 56 57 59 59 60 61 62 62 63 64 65 62 60 58 57 56 56 56 58 59
58 64 57 49 55 55 53 53 54 53 55 56 55 61 59 59 54 56 54 54 53 53 55 56 57 60 60 61 61 62 63 64 66 66 66 60 59 58 57 57 58 57 59 59
50 52 57 57 53 53 53 57 51 50 54 59 61 61 62 58 55 51 53 54 56 57 56 58 59 60 61 63 63 65 66 67 68 67 61 58 58 58 59 59 60 60 61 61
51 52 53 53 52 53 55 51 49 54 59 58 64 63 57 55 56 57 57 58 58 60 60 58 59 59 62 65 67 69 68 66 65 63 62 60 58 59 59 60 59 60 60 62
52 52 53 55 58 54 54 55 54 55 59 63 65 63 64 60 58 60 59 58 60 63 65 65 64 65 67 68 68 65 63 62 61 60 58 58 60 60 59 58 59 61 61 61
51 53 52 52 51 51 53 56 55 58 60 58 60 65 63 59 61 59 60 61 63 63 63 62 62 63 64 64 63 61 60 59 58 58 59 60 61 58 59 61 61 60 58 57
41 46 50 52 53 54 53 54 53 56 53 53 57 62 48 60 69 68 67 66 65 65 64 64 64 63 61 60 60 60 59 60 58 57 56 55 57 59 59 58 56 53 55 54
39 44 50 54 51 45 49 49 48 49 53 55 60 63 55 58 59 60 61 61 62 62 64 64 62 61 61 61 61 59 59 57 55 55 57 58 58 55 53 51 49 52 53 54
48 49 46 47 44 46 49 48 48 50 51 55 53 57 58 54 57 58 57 57 59 61 61 59 59 61 60 59 55 54 56 56 58 58 59 59 55 51 50 49 48 52 54 56
45 51 50 51 47 43 50 47 49 50 52 58 60 63 57 56 57 59 58 58 60 61 61 62 62 61 59 58 57 58 60 59 60 61 60 57 53 50 49 50 51 51 52 52
38 40 45 48 46 49 54 51 50 55 56 57 59 59 51 56 56 57 59 60 61 63 62 61 61 61 60 60 60 61 60 60 58 58 56 54 51 49 50 52 52 52 53 54
34 36 41 45 47 55 47 43 48 54 58 57 56 56 53 53 54 56 59 60 59 58 63 62 61 61 60 60 60 61 62 62 60 55 55 51 50 52 52 52 52 51 51 50
44 43 47 48 52 53 52 38 40 51 55 53 57 54 53 50 52 54 51 55 58 57 57 61 61 59 56 50 53 54 56 59 59 55 52 51 50 49 47 47 47 47 47 46
45 48 56 60 57 60 50 37 45 48 58 49 48 47 51 55 58 54 50 59 60 61 60 57 56 55 53 49 48 50 50 50 51 52 52 51 51 51 51 51 50 50 46 53
43 47 50 57 61 59 43 38 47 57 48 46 45 45 46 48 51 51 51 52 51 50 52 54 51 48 49 50 49 48 48 48 46 47 47 47 47 48 49 51 51 48 50 56
36 42 48 54 60 68 54 58 60 59 58 59 57 59 58 50 55 49 47 49 49 51 51 47 45 47 51 48 46 46 48 48 49 51 52 52 53 51 49 50 49 48 55 64
35 37 43 52 60 63 65 66 65 67 64 60 62 64 65 65 63 59 60 61 55 58 61 60 58 51 46 51 51 49 47 48 52 53 53 53 53 55 53 53 52 53 58 61
37 40 48 57 65 69 66 67 67 66 65 64 65 66 69 72 72 72 70 67 66 64 64 66 61 61 59 63 62 60 57 57 57 55 57 58 56 55 54 56 55 54 56 61
31 38 43 53 58 54 57 58 60 61 62 62 62 63 67 72 76 79 80 80 76 73 70 72 63 58 59 56 58 66 68 68 64 61 62 61 59 57 58 61 59 60 62 64
28 34 44 40 36 45 45 45 51 56 59 57 57 58 59 62 66 69 72 78 85 79 69 67 68 61 55 62 67 67 66 63 64 64 65 64 61 59 60 65 65 65 62 60
Wind_Direction
230 231 235 239 241 244 246 249 251 253 257 257 255 246 234 232 238 240 237 238 240 243 243 249 255 260 267 269 270 278 282 285 290 294 294 291 289 286 285 285 286 288 291 292
243 236 238 241 241 243 247 250 252 256 258 258 257 247 236 233 235 241 239 236 237 241 245 251 256 260 264 266 270 275 279 283 287 294 296 293 291 291 288 286 285 287 287 288
241 245 246 249 248 248 250 253 257 259 259 259 257 249 240 236 236 238 242 241 242 244 246 253 259 261 262 265 270 275 280 283 285 290 294 294 290 289 288 286 286 286 288 289
239 241 243 244 249 251 250 255 256 256 256 256 256 249 240 237 237 242 242 245 247 249 250 254 258 263 265 268 271 276 280 282 283 286 292 295 291 287 286 285 285 287 289 290
240 236 245 245 247 247 251 250 253 253 254 254 253 254 238 238 240 242 246 249 248 250 254 256 259 262 265 268 272 276 279 281 284 287 290 295 292 288 283 283 284 286 287 288
242 239 238 241 240 245 247 250 251 251 251 252 252 253 244 240 244 246 248 248 251 255 258 259 261 263 266 270 272 276 276 280 284 286 290 292 289 286 284 284 285 286 286 285
241 244 242 245 247 245 246 248 249 251 251 256 257 255 255 250 248 250 249 252 254 254 255 258 260 263 265 268 271 274 276 280 283 284 289 288 284 283 283 283 283 283 285 286
239 241 243 244 249 253 253 254 255 257 258 259 257 254 251 256 253 253 251 253 254 256 259 262 264 265 267 269 271 273 274 276 282 285 288 283 282 283 283 284 285 284 285 286
248 247 245 245 245 248 251 253 258 259 261 259 255 250 252 256 258 257 258 257 258 258 261 265 267 269 270 271 272 274 277 282 285 287 282 280 280 282 284 284 285 286 287 287
242 242 243 245 243 246 249 251 252 254 255 260 261 260 258 258 262 262 258 260 263 265 266 268 269 270 273 274 275 277 279 282 283 279 278 280 282 282 282 282 283 284 284 284
244 244 244 244 246 247 252 253 255 257 260 263 261 259 256 259 262 265 266 266 266 265 266 269 273 276 276 276 276 278 280 279 277 277 280 281 281 282 283 283 283 283 284 283
249 250 252 250 251 251 252 254 256 256 257 262 264 259 259 260 262 266 265 268 272 275 275 274 272 272 273 275 278 278 278 278 278 279 279 279 281 282 282 282 282 282 283 282
242 245 251 251 251 250 251 254 256 262 262 261 263 261 260 259 261 267 271 272 274 274 273 272 273 274 276 276 276 277 277 278 279 279 279 278 278 278 278 279 280 278 276 278
240 248 250 253 258 258 257 258 260 261 261 259 261 265 258 263 264 266 265 265 268 269 269 272 276 277 276 276 275 276 277 278 280 280 279 279 279 279 279 277 276 271 274 276
245 247 253 249 250 259 263 262 261 259 260 259 266 265 262 264 267 265 267 270 268 267 269 272 272 271 271 271 274 275 276 276 276 276 277 278 278 278 278 276 275 272 275 274
245 252 252 253 256 255 266 267 270 268 266 264 267 266 270 268 266 268 271 269 266 265 267 267 266 268 271 275 274 274 273 274 275 276 277 277 277 275 275 275 275 274 274 276
245 250 257 260 262 259 259 265 272 272 269 270 267 272 267 264 266 267 267 265 265 266 266 264 264 265 267 269 269 270 272 273 274 274 274 273 275 276 275 275 274 274 276 278
248 251 251 259 261 259 269 265 262 262 262 266 271 273 269 265 260 257 256 260 265 267 265 264 263 263 264 266 267 269 270 271 271 271 272 274 275 277 278 278 277 278 279 281
252 247 261 266 265 270 268 267 273 268 265 261 262 264 268 267 263 252 253 258 263 264 264 262 262 264 267 270 268 267 266 266 268 270 272 272 275 275 277 279 279 280 279 279
263 260 260 264 262 264 277 276 270 263 265 257 266 270 267 261 264 259 255 262 267 272 275 276 273 271 268 267 266 265 267 269 269 269 268 269 270 273 275 276 277 278 281 281
265 265 263 262 264 267 268 269 264 264 271 276 265 266 270 264 265 264 260 260 265 271 276 277 273 264 261 262 263 264 264 264 264 264 265 268 271 275 276 276 276 277 274 281
288 283 281 279 271 276 272 274 273 276 268 263 259 262 267 259 259 261 261 259 264 271 274 273 275 271 261 255 259 263 264 264 263 265 266 269 272 275 280 279 275 273 272 275
283 290 283 278 275 273 271 266 262 264 263 260 258 255 257 258 259 263 265 266 268 272 274 272 269 261 256 263 258 261 266 269 269 271 272 273 276 277 275 274 273 268 270 277
281 282 287 291 287 281 271 267 265 264 263 262 261 261 259 261 263 264 264 263 265 267 269 268 269 268 268 272 271 268 269 273 277 279 279 280 278 277 277 276 273 272 272 272
277 276 286 294 296 276 269 267 264 264 266 265 264 264 264 261 260 261 263 264 264 265 265 266 266 271 270 275 275 269 268 272 275 276 276 276 275 276 276 276 272 271 272 275
285 272 273 297 306 276 269 267 266 266 264 262 265 266 268 269 269 268 267 263 259 262 264 263 255 271 273 274 275 267 265 267 272 273 273 275 274 274 275 275 273 273 276 278
Height
5747 5752 5758 5768 5772 5777 5781 5783 5788 5793 5796 5797 5801 5805 5813 5818 5818 5821 5825 5827 5829 5830 5829 5827 5830 5836 5837 5837 5835 5836 5836 5835 5834 5833 5832 5831 5829 5829 5828 5826 5822 5819 5817 5813
5738 5743 5753 5758 5760 5765 5769 5772 5777 5782 5784 5787 5789 5794 5803 5807 5811 5814 5815 5817 5820 5821 5822 5821 5825 5829 5829 5827 5827 5827 5827 5826 5826 5824 5823 5822 5820 5818 5816 5815 5814 5812 5808 5804
5729 5736 5741 5746 5750 5753 5759 5763 5767 5769 5771 5775 5776 5781 5791 5801 5801 5802 5806 5810 5812 5815 5816 5815 5818 5819 5818 5817 5818 5818 5817 5816 5815 5814 5813 5810 5808 5807 5805 5803 5801 5798 5796 5794
5717 5727 5732 5735 5741 5745 5749 5755 5757 5759 5758 5762 5763 5764 5779 5789 5791 5792 5797 5801 5804 5805 5806 5809 5809 5808 5808 5807 5808 5807 5806 5804 5803 5802 5801 5799 5797 5794 5792 5791 5789 5786 5784 5781
5712 5720 5722 5728 5736 5737 5740 5743 5745 5747 5748 5748 5755 5753 5767 5776 5780 5785 5791 5791 5791 5795 5797 5798 5798 5797 5797 5796 5797 5797 5794 5792 5792 5790 5789 5787 5784 5782 5779 5777 5776 5774 5772 5769
5700 5706 5710 5719 5722 5725 5728 5733 5734 5734 5736 5736 5746 5744 5750 5764 5773 5775 5776 5781 5783 5786 5785 5785 5786 5785 5785 5784 5784 5784 5782 5781 5780 5778 5776 5774 5771 5769 5766 5764 5762 5760 5756 5753
5692 5698 5706 5710 5712 5716 5719 5721 5721 5722 5724 5728 5736 5738 5744 5754 5760 5763 5766 5767 5769 5771 5771 5773 5774 5774 5773 5772 5772 5772 5771 5770 5768 5766 5763 5760 5757 5755 5753 5751 5748 5744 5742 5738
5680 5686 5693 5701 5705 5710 5711 5712 5711 5713 5714 5718 5722 5724 5734 5737 5746 5748 5753 5754 5756 5758 5758 5759 5758 5758 5758 5758 5758 5757 5756 5755 5753 5752 5750 5746 5743 5741 5738 5736 5733 5730 5727 5724
5672 5675 5682 5689 5694 5696 5698 5697 5705 5703 5702 5701 5704 5716 5723 5727 5732 5737 5739 5740 5740 5743 5744 5745 5744 5742 5743 5743 5743 5741 5740 5739 5738 5737 5734 5732 5730 5728 5724 5721 5718 5714 5711 5708
5658 5664 5668 5673 5678 5681 5682 5689 5688 5687 5688 5690 5697 5703 5712 5719 5719 5719 5724 5725 5727 5727 5728 5728 5728 5726 5726 5727 5727 5726 5725 5726 5724 5721 5719 5717 5715 5712 5709 5706 5703 5700 5696 5693
5647 5652 5658 5661 5665 5671 5673 5675 5677 5678 5678 5681 5686 5689 5701 5707 5707 5705 5706 5708 5710 5711 5711 5711 5711 5710 5710 5710 5709 5710 5710 5710 5708 5706 5705 5703 5699 5696 5693 5690 5687 5683 5680 5675
5641 5641 5645 5651 5655 5657 5657 5659 5661 5662 5667 5666 5668 5675 5692 5694 5692 5690 5693 5694 5693 5693 5695 5695 5693 5692 5693 5693 5694 5694 5691 5691 5690 5691 5689 5686 5683 5679 5676 5673 5669 5666 5663 5661
5630 5629 5632 5636 5641 5641 5643 5649 5651 5654 5653 5653 5654 5665 5687 5678 5676 5679 5677 5677 5677 5678 5676 5675 5676 5678 5680 5679 5677 5676 5675 5675 5674 5673 5671 5668 5665 5662 5659 5656 5654 5652 5650 5648
5618 5619 5621 5625 5634 5633 5633 5637 5639 5639 5638 5644 5640 5655 5670 5666 5666 5665 5661 5663 5662 5660 5657 5659 5662 5662 5659 5660 5660 5659 5659 5658 5657 5655 5653 5650 5647 5645 5643 5642 5640 5639 5637 5636
5605 5608 5613 5618 5619 5619 5621 5623 5625 5627 5631 5625 5636 5633 5654 5653 5649 5642 5645 5649 5645 5642 5644 5647 5646 5643 5641 5643 5645 5644 5643 5643 5641 5638 5636 5633 5631 5630 5630 5629 5627 5626 5623 5621
5596 5600 5603 5606 5611 5610 5607 5608 5611 5613 5615 5612 5618 5618 5640 5636 5634 5630 5634 5630 5626 5625 5629 5629 5625 5627 5628 5631 5630 5627 5626 5625 5624 5622 5621 5619 5617 5616 5615 5614 5613 5611 5608 5606
5587 5591 5592 5593 5600 5593 5591 5602 5603 5598 5601 5603 5598 5611 5617 5619 5620 5619 5617 5607 5605 5608 5609 5611 5614 5613 5612 5611 5610 5608 5608 5608 5607 5606 5605 5604 5603 5602 5600 5599 5598 5596 5594 5592
5579 5580 5580 5581 5582 5573 5586 5593 5592 5590 5588 5588 5587 5592 5598 5599 5599 5598 5595 5590 5591 5589 5590 5592 5593 5594 5595 5595 5595 5594 5592 5591 5590 5590 5589 5589 5589 5587 5585 5584 5583 5581 5579 5577
5572 5571 5569 5567 5566 5567 5570 5586 5586 5578 5576 5579 5576 5580 5580 5582 5582 5579 5588 5581 5571 5569 5570 5574 5578 5577 5578 5578 5578 5576 5575 5575 5575 5576 5576 5575 5574 5573 5570 5569 5568 5566 5565 5563
5561 5561 5560 5557 5552 5550 5566 5576 5573 5562 5548 5572 5572 5566 5566 5568 5558 5568 5575 5564 5563 5561 5561 5561 5563 5564 5564 5562 5561 5561 5562 5562 5563 5562 5561 5560 5559 5558 5556 5555 5553 5552 5551 5549
5550 5549 5546 5545 5539 5536 5556 5564 5556 5543 5554 5561 5556 5551 5550 5549 5548 5551 5552 5553 5552 5551 5550 5550 5550 5549 5548 5548 5548 5548 5548 5547 5547 5546 5546 5545 5546 5545 5542 5540 5538 5537 5536 5534
5539 5537 5536 5535 5528 5524 5547 5541 5537 5538 5535 5538 5540 5536 5533 5532 5532 5534 5537 5538 5538 5538 5540 5539 5538 5537 5536 5536 5536 5536 5535 5535 5533 5533 5533 5532 5532 5530 5527 5526 5524 5523 5521 5520
5527 5527 5524 5518 5513 5515 5519 5516 5515 5512 5510 5513 5515 5516 5513 5513 5516 5517 5519 5521 5522 5524 5525 5525 5525 5523 5522 5523 5522 5521 5521 5519 5520 5519 5518 5517 5516 5515 5512 5511 5509 5508 5507 5504
5516 5513 5507 5503 5504 5495 5492 5492 5492 5490 5489 5491 5492 5494 5495 5494 5494 5495 5497 5501 5504 5506 5508 5509 5509 5508 5507 5506 5507 5508 5506 5506 5505 5505 5503 5501 5500 5499 5497 5495 5493 5492 5491 5488
5504 5500 5496 5488 5480 5473 5471 5470 5469 5468 5467 5467 5469 5471 5473 5475 5479 5476 5478 5481 5483 5484 5487 5488 5490 5489 5489 5489 5490 5488 5487 5487 5487 5486 5486 5484 5483 5483 5481 5479 5477 5475 5472 5470
5492 5488 5479 5473 5466 5457 5455 5455 5451 5450 5451 5451 5452 5453 5454 5454 5455 5456 5457 5457 5459 5462 5464 5466 5468 5470 5468 5469 5469 5469 5468 5469 5468 5467 5467 5466 5466 5465 5464 5462 5459 5457 5455 5452